Weather History for KORC - March, 2014

Change the Weather History Date:

Saturday, March 15, 2014

  Actual Average Record
Temperature  
Mean Temperature 32 °F -  
Max Temperature 37 °F 39 °F 77 °F (2012)
Min Temperature 26 °F 24 °F -1 °F (1949)
Degree Days  
Heating Degree Days 34    
Moisture  
Dew Point 23 °F    
Average Humidity 68    
Maximum Humidity 87    
Minimum Humidity 45    
Precipitation  
Precipitation 0.00 in - - ()
Sea Level Pressure  
Sea Level Pressure 30.06 in    
Wind  
Wind Speed 11 mph (ENE)    
Max Wind Speed 20 mph    
Max Gust Speed 30 mph    
Visibility 10 miles    
Events Snow    
Averages and records for this station are not official NWS values.
T = Trace of Precipitation, MM = Missing Value Source: NWS Daily Summary

Daily Weather History Graph

Daily Weather History Graph

Search for Another Location

Airport or City:

Trip Planner

Search our weather history database for the weather conditions in past years. The results will help you decide how hot, cold, wet, or windy it might be!

Date:

Astronomy

Mar. 15, 2014 Rise Set
Actual Time 7:36 AM CDT 7:30 PM CDT
Civil Twilight 7:08 AM CDT 7:58 PM CDT
Nautical Twilight 6:35 AM CDT 8:31 PM CDT
Astronomical Twilight 6:01 AM CDT 9:05 PM CDT
Moon 6:50 PM CDT (3/15) 6:49 AM CDT (3/15)
Length of Visible Light 12h 50m
Length of Day
11h 54m
Waxing Gibbous, 99% of the Moon is Illuminated
Mar 15
Waxing Gibbous
Mar 16
Full
Mar 23
Last Quarter
Mar 30
New
Apr 7
First Quarter

Hourly Weather History & Observations

Time (CDT) Temp. Windchill Dew Point Humidity Pressure Visibility Wind Dir Wind Speed Gust Speed Precip Events Conditions
12:15 AM 33.8 °F 27.7 °F 28.4 °F 81% 29.94 in 10.0 mi East 6.9 mph - N/A   Clear
12:35 AM 33.8 °F 27.7 °F 30.2 °F 87% 29.94 in 10.0 mi East 6.9 mph - N/A   Clear
12:55 AM 33.8 °F 28.6 °F 28.4 °F 81% 29.94 in 10.0 mi East 5.8 mph - N/A   Scattered Clouds
1:15 AM 33.8 °F 27.7 °F 28.4 °F 81% 29.94 in 10.0 mi East 6.9 mph - N/A   Mostly Cloudy
1:35 AM 33.8 °F 27.7 °F 28.4 °F 81% 29.94 in 10.0 mi East 6.9 mph - N/A   Mostly Cloudy
1:55 AM 33.8 °F 27.0 °F 30.2 °F 87% 29.94 in 10.0 mi East 8.1 mph - N/A   Mostly Cloudy
2:15 AM 33.8 °F 26.4 °F 30.2 °F 87% 29.95 in 10.0 mi East 9.2 mph - N/A   Mostly Cloudy
2:35 AM 33.8 °F 25.8 °F 28.4 °F 81% 29.95 in 10.0 mi East 10.4 mph - N/A   Mostly Cloudy
2:55 AM 33.8 °F 26.4 °F 28.4 °F 81% 29.95 in 10.0 mi East 9.2 mph - N/A   Mostly Cloudy
3:15 AM 33.8 °F 27.0 °F 28.4 °F 81% 29.95 in 10.0 mi East 8.1 mph - N/A   Mostly Cloudy
3:35 AM 33.8 °F 26.4 °F 26.6 °F 75% 29.93 in 10.0 mi East 9.2 mph - N/A   Overcast
3:55 AM 33.8 °F 25.8 °F 26.6 °F 75% 29.92 in 10.0 mi East 10.4 mph - N/A   Overcast
4:15 AM 33.8 °F 26.4 °F 26.6 °F 75% 29.92 in 10.0 mi East 9.2 mph - N/A   Overcast
4:35 AM 33.8 °F 25.3 °F 24.8 °F 70% 29.90 in 10.0 mi East 11.5 mph 16.1 mph N/A   Overcast
4:55 AM 33.8 °F 25.3 °F 23.0 °F 65% 29.90 in 10.0 mi East 11.5 mph 17.3 mph N/A   Scattered Clouds
5:15 AM 32.0 °F 23.0 °F 21.2 °F 64% 29.90 in 10.0 mi East 11.5 mph - N/A   Clear
5:35 AM 32.0 °F 22.5 °F 21.2 °F 64% 29.89 in 10.0 mi East 12.7 mph - N/A   Clear
5:55 AM 30.2 °F 20.8 °F 21.2 °F 69% 29.90 in 10.0 mi East 11.5 mph - N/A   Clear
6:15 AM 30.2 °F 21.9 °F 19.4 °F 64% 29.90 in 10.0 mi East 9.2 mph - N/A   Clear
6:35 AM 30.2 °F 21.3 °F 19.4 °F 64% 29.91 in 10.0 mi East 10.4 mph - N/A   Clear
6:55 AM 30.2 °F 21.3 °F 19.4 °F 64% 29.91 in 10.0 mi East 10.4 mph - N/A   Clear
7:15 AM 30.2 °F 20.8 °F 19.4 °F 64% 29.92 in 10.0 mi East 11.5 mph - N/A   Clear
7:35 AM 30.2 °F 20.8 °F 19.4 °F 64% 29.92 in 10.0 mi East 11.5 mph 18.4 mph N/A   Clear
7:55 AM 30.2 °F 20.2 °F 21.2 °F 69% 29.93 in 10.0 mi East 12.7 mph 19.6 mph N/A   Clear
8:15 AM 30.2 °F 19.8 °F 21.2 °F 69% 29.94 in 10.0 mi East 13.8 mph 19.6 mph N/A   Clear
8:35 AM 30.2 °F 19.8 °F 21.2 °F 69% 29.94 in 10.0 mi East 13.8 mph 20.7 mph N/A   Clear
8:55 AM 30.2 °F 19.8 °F 21.2 °F 69% 29.94 in 10.0 mi East 13.8 mph 19.6 mph N/A   Clear
9:15 AM 32.0 °F 21.6 °F 21.2 °F 64% 29.95 in 10.0 mi East 15.0 mph 20.7 mph N/A   Clear
9:35 AM 33.8 °F 23.5 °F 21.2 °F 60% 29.96 in 10.0 mi East 16.1 mph 21.9 mph N/A   Clear
9:55 AM 33.8 °F 23.5 °F 21.2 °F 60% 29.97 in 10.0 mi East 16.1 mph 20.7 mph N/A   Clear
10:15 AM 33.8 °F 23.2 °F 19.4 °F 56% 29.97 in 10.0 mi East 17.3 mph 24.2 mph N/A   Clear
10:35 AM 35.6 °F 25.5 °F 17.6 °F 48% 29.98 in 10.0 mi East 17.3 mph 26.5 mph N/A   Clear
10:55 AM 37.4 °F 27.2 °F 17.6 °F 45% 29.98 in 10.0 mi East 19.6 mph 26.5 mph N/A   Clear
11:15 AM 37.4 °F 27.5 °F 17.6 °F 45% 29.99 in 10.0 mi East 18.4 mph 26.5 mph N/A   Clear
11:35 AM 37.4 °F 27.2 °F 17.6 °F 45% 29.99 in 10.0 mi East 19.6 mph 29.9 mph N/A   Clear
11:55 AM 37.4 °F 27.5 °F 19.4 °F 48% 30.00 in 10.0 mi East 18.4 mph 26.5 mph N/A   Clear
12:15 PM 37.4 °F 27.8 °F 19.4 °F 48% 30.02 in 10.0 mi East 17.3 mph 26.5 mph N/A   Clear
12:35 PM 37.4 °F 28.2 °F 19.4 °F 48% 30.02 in 10.0 mi East 16.1 mph 27.6 mph N/A   Clear
1:15 PM 37.4 °F 27.2 °F 21.2 °F 52% 30.04 in 10.0 mi East 19.6 mph 25.3 mph N/A   Clear
1:35 PM 37.4 °F 27.8 °F 21.2 °F 52% 30.04 in 10.0 mi East 17.3 mph 26.5 mph N/A   Clear
1:55 PM 35.6 °F 25.2 °F 21.2 °F 56% 30.05 in 10.0 mi ENE 18.4 mph 28.8 mph N/A   Clear
2:15 PM 35.6 °F 25.5 °F 23.0 °F 60% 30.06 in 10.0 mi ENE 17.3 mph 26.5 mph N/A   Clear
2:35 PM 37.4 °F 28.5 °F 24.8 °F 60% 30.07 in 10.0 mi ENE 15.0 mph 24.2 mph N/A   Clear
2:55 PM 35.6 °F 25.5 °F 26.6 °F 70% 30.08 in 10.0 mi ENE 17.3 mph 25.3 mph N/A   Scattered Clouds
3:15 PM 35.6 °F 27.5 °F 26.6 °F 70% 30.09 in 10.0 mi NE 11.5 mph 23.0 mph N/A   Scattered Clouds
3:35 PM 33.8 °F 23.5 °F 24.8 °F 70% 30.09 in 10.0 mi ENE 16.1 mph 23.0 mph N/A   Scattered Clouds
3:55 PM 33.8 °F 24.8 °F 24.8 °F 70% 30.10 in 10.0 mi ENE 12.7 mph 24.2 mph N/A   Scattered Clouds
4:15 PM 33.8 °F 24.3 °F 24.8 °F 70% 30.11 in 10.0 mi ENE 13.8 mph 25.3 mph N/A   Scattered Clouds
4:35 PM 30.2 °F 19.3 °F 26.6 °F 86% 30.12 in 7.0 mi ENE 15.0 mph 28.8 mph N/A   Scattered Clouds
4:55 PM 30.2 °F 21.3 °F 24.8 °F 80% 30.13 in 4.0 mi NE 10.4 mph 20.7 mph N/A Snow Light Snow
5:15 PM 30.2 °F 21.3 °F 24.8 °F 80% 30.14 in 4.0 mi NE 10.4 mph 23.0 mph N/A Snow Light Snow
5:35 PM 30.2 °F 20.8 °F 24.8 °F 80% 30.15 in 5.0 mi NE 11.5 mph 23.0 mph N/A Snow Light Snow
5:55 PM 30.2 °F 19.8 °F 24.8 °F 80% 30.17 in 10.0 mi ENE 13.8 mph 24.2 mph N/A   Mostly Cloudy
6:15 PM 30.2 °F 20.2 °F 23.0 °F 75% 30.18 in 10.0 mi NE 12.7 mph 19.6 mph N/A   Overcast
6:35 PM 30.2 °F 21.3 °F 23.0 °F 75% 30.19 in 10.0 mi NE 10.4 mph 23.0 mph N/A   Mostly Cloudy
6:55 PM 28.4 °F 19.1 °F 21.2 °F 74% 30.20 in 10.0 mi NE 10.4 mph 18.4 mph N/A   Scattered Clouds
7:15 PM 28.4 °F 19.1 °F 21.2 °F 74% 30.21 in 10.0 mi ENE 10.4 mph 19.6 mph N/A   Clear
7:35 PM 28.4 °F 18.0 °F 21.2 °F 74% 30.22 in 10.0 mi NE 12.7 mph 18.4 mph N/A   Scattered Clouds
7:55 PM 28.4 °F 19.1 °F 21.2 °F 74% 30.24 in 10.0 mi NE 10.4 mph 19.6 mph N/A   Mostly Cloudy
8:15 PM 28.4 °F 18.0 °F 21.2 °F 74% 30.24 in 10.0 mi NNE 12.7 mph 18.4 mph N/A   Scattered Clouds
8:35 PM 28.4 °F 18.0 °F 19.4 °F 69% 30.25 in 10.0 mi NE 12.7 mph 21.9 mph N/A   Clear
8:55 PM 28.4 °F 19.1 °F 19.4 °F 69% 30.25 in 10.0 mi NE 10.4 mph 18.4 mph N/A   Clear
9:15 PM 28.4 °F 18.5 °F 19.4 °F 69% 30.26 in 10.0 mi NE 11.5 mph 18.4 mph N/A   Scattered Clouds
9:35 PM 28.4 °F 19.1 °F 19.4 °F 69% 30.27 in 10.0 mi NE 10.4 mph 19.6 mph N/A   Mostly Cloudy
9:55 PM 28.4 °F 18.5 °F 19.4 °F 69% 30.29 in 10.0 mi NE 11.5 mph - N/A   Overcast
10:15 PM 28.4 °F 19.1 °F 19.4 °F 69% 30.30 in 10.0 mi NE 10.4 mph 17.3 mph N/A   Mostly Cloudy
10:35 PM 28.4 °F 19.1 °F 19.4 °F 69% 30.31 in 10.0 mi NNE 10.4 mph 17.3 mph N/A   Scattered Clouds
10:55 PM 28.4 °F 19.7 °F 19.4 °F 69% 30.32 in 10.0 mi NE 9.2 mph 16.1 mph N/A   Clear
11:15 PM 26.6 °F 17.5 °F 17.6 °F 69% 30.32 in 10.0 mi NE 9.2 mph 18.4 mph N/A   Clear
11:35 PM 26.6 °F 17.5 °F 17.6 °F 69% 30.33 in 10.0 mi NE 9.2 mph - N/A   Scattered Clouds
11:55 PM 26.6 °F 17.5 °F 17.6 °F 69% 30.34 in 10.0 mi NE 9.2 mph - N/A   Clear